Погода в Петровском

Россия / Ивановская область     56°38′43″N   40°19′04″E
темп.,
°C
ветер,
м/с
пор.,
м/с
влажн.,
%
обл.,
%
осадки,
мм/ч
давл.,
гПа
погр.,
м
15 апреля, чт
чт1500:00+11ю2261100 0.0 101811
03:00+9ююв116469 0.0 101810
06:00+9св2268100 0.0 101810
09:00+13св2458100 0.0 1018197
12:00+17св3446100 0.0 1018710
15:00+17св4552100 0.0 10191061
18:00+12св51076100 0.0 1020573
21:00+8св61386100 0.0 1021507
16 апреля, пт
пт1600:00+7всв51388100 0.0 1022507
03:00+6всв51286100 0.0 1023606
06:00+6всв51285100 0.0 1024532
09:00+7всв51176100 0.0 1025664
12:00+11всв586298 0.0 1025937
15:00+13всв685663 0.0 10251157
18:00+12всв596166 0.0 1025960
21:00+8всв5136799 0.0 1026565
17 апреля, сб
сб1700:00+6всв51367100 0.0 1027479
03:00+4всв4127450 0.0 1027395
06:00+4всв4127434 0.0 1028411
09:00+8всв595327 0.0 1028627
12:00+12всв68385 0.0 10271038
15:00+13всв68315 0.0 10271294
18:00+11всв59415 0.0 10271033
21:00+8всв412560 0.0 1027407
18 апреля, вс
вс1800:00+5св412680 0.0 1027371
03:00+4всв311760 0.0 1028291
06:00+3св411780 0.0 1028310
09:00+8всв59560 0.0 1027886
12:00+12всв58436 0.0 10271578
15:00+12всв573897 0.0 10271840
18:00+10всв4949100 0.0 10271278
21:00+8св2966100 0.0 1028223
19 апреля, пн
пн1900:00+6всв41176100 0.0 1029462
03:00+4всв41086100 0.0 1030355
06:00+3всв3983100 0.0 1030359
09:00+6всв4753100 0.0 1030706
12:00+9в564235 0.0 10301418
15:00+10в563253 0.0 10291755
18:00+8всв4638100 0.0 10301068
21:00+4всв39555 0.0 1030232